Flag for U.S.A. Weather past 2 weeks in Winston-Salem, North Carolina, U.S.A.

Now
68 °F

Mostly cloudy.


Feels Like: 68 °F
Forecast: 66 / 82 °F
Wind: No wind

Location: Smith Reynolds Airport

Current Time: Aug 31, 2015 at 5:42:10 AM

Latest Report: Aug 31, 2015 at 5:01 AM


Visibility: 10 mi

Pressure: 30.13 "Hg

Humidity: 90%

Dew point: 65 °F

Location of Winston-SalemLocation

Historic Weather in Winston-Salem — Graph

°F

Winston-Salem temperature yesterday

Maximum temperature yesterday: 80 °F (at 11:54 AM)
Minimum temperature yesterday: 68 °F (at 5:54 AM)
Average temperature yesterday: 74 °F

Past Weeks' High & Low Weather Summary

 TemperatureHumidityPressure
High88 °F (Aug 24, 1:54 PM)97% (Aug 18, 2:54 AM)30.24 "Hg (Aug 18, 2:54 AM)
Low62 °F (Aug 27, 5:54 AM)40% (Aug 28, 5:54 PM)29.86 "Hg (Aug 24, 4:54 PM)
Average75 °F71%30.05 "Hg
* Reported Aug 16 3:54 AM — Aug 31 3:54 AM, Winston-Salem, Weather by CustomWeather, © 2015

Note: Actual official high and low records may vary slightly from our data, if they occured in-between our weather recording intervals... More about our weather records

Advertising

Winston-Salem weather history for previous 24 hours

 ConditionsComfort  
Time TempWeatherWind HumidityBarometerVisibility
3:54 AM
Mon, Aug 31
68 °FLight rain. Overcast.No wind87%30.10 "Hg8 mi
2:54 AM69 °FLight rain. Partly cloudy.3 mph81%30.11 "Hg10 mi
1:54 AM70 °FMostly cloudy.No wind79%30.11 "Hg10 mi
12:54 AM71 °FPassing clouds.3 mph78%30.11 "Hg10 mi
11:54 PM
Sun, Aug 30
73 °FOvercast.6 mph71%30.12 "Hg10 mi
10:54 PM74 °FOvercast.6 mph67%30.14 "Hg10 mi
9:54 PM75 °FOvercast.3 mph69%30.14 "Hg10 mi
8:54 PM74 °FOvercast.No wind76%30.12 "Hg10 mi
7:54 PM76 °FOvercast.No wind67%30.11 "Hg10 mi
6:54 PM78 °FScattered clouds.No wind62%30.12 "Hg10 mi
5:54 PM78 °FPartly sunny.3 mph58%30.12 "Hg10 mi
4:54 PM79 °FOvercast.3 mph52%30.13 "Hg10 mi
3:54 PM78 °FLight rain. Partly sunny.3 mph58%30.14 "Hg10 mi
2:54 PM80 °FScattered clouds.3 mph52%30.14 "Hg10 mi
1:54 PM80 °FScattered clouds.3 mph51%30.15 "Hg10 mi
12:54 PM80 °FPassing clouds.3 mph52%30.16 "Hg10 mi
11:54 AM80 °FSunny.5 mph51%30.17 "Hg10 mi
10:54 AM78 °FSunny.3 mph56%30.17 "Hg10 mi
9:54 AM76 °FSunny.No wind62%30.17 "Hg10 mi
8:54 AM73 °FPassing clouds.No wind71%30.16 "Hg10 mi
7:54 AM69 °FPassing clouds.No wind87%30.16 "Hg9 mi
6:54 AM69 °FClear.No wind84%30.15 "Hg10 mi
5:54 AM68 °FClear.No wind87%30.13 "Hg10 mi
Weather by CustomWeather, © 2015

See weather overviewHow to use our weather pages